Rotterdam, Netherlands

5:57 PM CEST on June 27, 2017 (GMT +0200)
Rotterdam

Weather History for EHRD - January, 2014

Change the Weather History Date:

Tuesday, January 7, 2014

  Actual Average Record
Temperature  
Mean Temperature 50 °F -  
Max Temperature 53 °F 41 °F 55 °F (2005)
Min Temperature 48 °F 33 °F 17 °F (1997)
Degree Days  
Heating Degree Days 14    
Moisture  
Dew Point 44 °F    
Average Humidity 76    
Maximum Humidity 83    
Minimum Humidity 64    
Precipitation  
Precipitation 0.00 in - - ()
Sea Level Pressure  
Sea Level Pressure 29.74 in    
Wind  
Wind Speed 18 mph ()    
Max Wind Speed 25 mph    
Max Gust Speed 37 mph    
Visibility 8.2 miles    
Events Rain    
Averages and records for this station are not official NWS values.
T = Trace of Precipitation, MM = Missing Value Source: Averaged Metar Reports

Daily Weather History Graph

Daily Weather History Graph

Search for Another Location

Airport or City:

Trip Planner

Search our weather history database for the weather conditions in past years. The results will help you decide how hot, cold, wet, or windy it might be!

Date:

Astronomy

Jan. 07, 2014 Rise Set
Actual Time 8:48 AM CET 4:48 PM CET
Civil Twilight 8:08 AM CET 5:28 PM CET
Nautical Twilight 7:25 AM CET 6:11 PM CET
Astronomical Twilight 6:44 AM CET 6:52 PM CET
Moon 11:34 AM CET (1/7) No Moon Set
Length of Visible Light 9h 20m
Length of Day
8h 00m
Waxing Crescent, 42% of the Moon is Illuminated
Jan 7
Waxing Crescent
Jan 8
First Quarter
Jan 16
Full
Jan 24
Last Quarter
Jan 30
New

Hourly Weather History & Observations

Time (CET) Temp. Dew Point Humidity Pressure Visibility Wind Dir Wind Speed Gust Speed Precip Events Conditions
12:00 AM 49 °F 45 °F 83% 29.62 in 16 mi SSW 15.7 mph - -   Partly Cloudy
12:25 AM 50.0 °F 44.6 °F 82% 29.62 in 6.2 mi SSW 19.6 mph - N/A   Partly Cloudy
12:55 AM 50.0 °F 44.6 °F 82% 29.62 in 6.2 mi SSW 18.4 mph - N/A   Unknown
1:00 AM 50 °F 44 °F 73% 29.63 in 14 mi SSW 17.9 mph - -   Partly Cloudy
1:25 AM 50.0 °F 44.6 °F 82% 29.62 in 6.2 mi SSW 18.4 mph 29.9 mph N/A   Unknown
1:55 AM 50.0 °F 42.8 °F 76% 29.62 in 6.2 mi SSW 20.7 mph 32.2 mph N/A   Unknown
2:00 AM 50 °F 44 °F 72% 29.65 in 12 mi SSW 22.4 mph - -   Scattered Clouds
2:25 AM 50.0 °F 42.8 °F 76% 29.65 in 6.2 mi SSW 20.7 mph 32.2 mph N/A   Partly Cloudy
2:55 AM 50.0 °F 42.8 °F 76% 29.65 in 6.2 mi SSW 23.0 mph - N/A   Mostly Cloudy
3:00 AM 49 °F 44 °F 75% 29.68 in 11 mi SSW 22.4 mph - -   Scattered Clouds
3:25 AM 50.0 °F 42.8 °F 76% 29.68 in 6.2 mi SSW 20.7 mph 32.2 mph N/A   Unknown
3:55 AM 50.0 °F 42.8 °F 76% 29.68 in 6.2 mi SSW 18.4 mph - N/A   Unknown
4:00 AM 49 °F 43 °F 74% 29.70 in 10 mi SSW 22.4 mph - -   Scattered Clouds
4:25 AM 50.0 °F 44.6 °F 82% 29.68 in 6.2 mi SSW 21.9 mph - N/A   Scattered Clouds
4:55 AM 50.0 °F 44.6 °F 82% 29.68 in 6.2 mi SSW 23.0 mph - N/A   Mostly Cloudy
5:00 AM 50 °F 44 °F 73% 29.71 in 9 mi SSW 22.4 mph - -   Overcast
5:25 AM 50.0 °F 42.8 °F 76% 29.68 in 6.2 mi SSW 20.7 mph - N/A   Scattered Clouds
5:55 AM 50.0 °F 42.8 °F 76% 29.68 in 6.2 mi SSW 17.3 mph - N/A   Unknown
6:00 AM 49 °F 43 °F 74% 29.71 in 8 mi South 17.9 mph - -  
6:25 AM 48.2 °F 42.8 °F 82% 29.71 in 6.2 mi South 18.4 mph - N/A   Unknown
6:55 AM 50.0 °F 42.8 °F 76% 29.71 in 6.2 mi SSW 20.7 mph - N/A   Scattered Clouds
7:00 AM 49 °F 43 °F 74% 29.73 in 8 mi SSW 20.1 mph - -   Partly Cloudy
7:25 AM 50.0 °F 42.8 °F 76% 29.71 in 6.2 mi SSW 19.6 mph 31.1 mph N/A   Overcast
7:55 AM 50.0 °F 42.8 °F 76% 29.71 in 6.2 mi South 19.6 mph - N/A   Unknown
8:00 AM 49 °F 44 °F 76% 29.73 in 9 mi South 20.1 mph - -   Scattered Clouds
8:25 AM 50.0 °F 44.6 °F 82% 29.71 in 6.2 mi SSW 21.9 mph - N/A   Unknown
8:55 AM 50.0 °F 44.6 °F 82% 29.74 in 6.2 mi SSW 21.9 mph - N/A   Scattered Clouds
9:00 AM 49 °F 44 °F 76% 29.75 in 9 mi South 22.4 mph - -   Scattered Clouds
9:25 AM 50.0 °F 44.6 °F 82% 29.74 in 6.2 mi SSW 18.4 mph - N/A   Unknown
9:55 AM 50.0 °F 44.6 °F 82% 29.74 in 6.2 mi SSW 20.7 mph - N/A   Partly Cloudy
10:00 AM 50 °F 44 °F 73% 29.77 in 9 mi SSW 20.1 mph - -   Mostly Cloudy
10:25 AM 50.0 °F 44.6 °F 82% 29.77 in 6.2 mi SSW 20.7 mph - N/A   Scattered Clouds
10:55 AM 50.0 °F 44.6 °F 82% 29.77 in 6.2 mi SSW 18.4 mph 34.5 mph N/A   Partly Cloudy
11:00 AM 51 °F 44 °F 71% 29.77 in 8 mi SSW 22.4 mph - -   Scattered Clouds
11:25 AM 51.8 °F 44.6 °F 76% 29.77 in 6.2 mi SSW 21.9 mph 34.5 mph N/A   Partly Cloudy
11:55 AM 51.8 °F 44.6 °F 76% 29.77 in 6.2 mi SSW 21.9 mph - N/A   Mostly Cloudy
12:00 PM 52 °F 44 °F 68% 29.77 in 9 mi SSW 22.4 mph - -   Partly Cloudy
12:25 PM 51.8 °F 44.6 °F 76% 29.74 in 6.2 mi SSW 23.0 mph 35.7 mph N/A   Scattered Clouds
12:55 PM 51.8 °F 44.6 °F 76% 29.74 in 6.2 mi SSW 23.0 mph 34.5 mph N/A   Mostly Cloudy
1:00 PM 53 °F 44 °F 64% 29.77 in 9 mi SSW 24.6 mph - -   Partly Cloudy
1:25 PM 51.8 °F 44.6 °F 76% 29.74 in 6.2 mi SSW 23.0 mph 34.5 mph N/A   Overcast
1:55 PM 51.8 °F 44.6 °F 76% 29.74 in 6.2 mi SSW 20.7 mph - N/A   Mostly Cloudy
2:00 PM 53 °F 45 °F 66% 29.77 in 10 mi SSW 22.4 mph - -   Overcast
2:25 PM 53.6 °F 44.6 °F 72% 29.77 in 6.2 mi SSW 21.9 mph 33.4 mph N/A   Overcast
2:55 PM 53.6 °F 44.6 °F 72% 29.74 in 6.2 mi SSW 21.9 mph - N/A   Overcast
3:00 PM 53 °F 45 °F 66% 29.77 in 12 mi SSW 22.4 mph - -   Scattered Clouds
3:25 PM 51.8 °F 44.6 °F 76% 29.77 in 6.2 mi SSW 19.6 mph - N/A   Overcast
3:55 PM 53.6 °F 44.6 °F 72% 29.77 in 6.2 mi SSW 20.7 mph 35.7 mph N/A   Scattered Clouds
4:00 PM 53 °F 45 °F 65% 29.78 in 11 mi SSW 20.1 mph - -   Overcast
4:25 PM 51.8 °F 46.4 °F 82% 29.77 in 6.2 mi SSW 20.7 mph - N/A Rain Light Rain
4:55 PM 53.6 °F 44.6 °F 72% 29.77 in 6.2 mi SSW 23.0 mph 36.8 mph N/A   Scattered Clouds
5:00 PM 53 °F 44 °F 64% 29.78 in 15 mi SSW 24.6 mph - - Rain Rain
5:25 PM 53.6 °F 44.6 °F 72% 29.77 in 6.2 mi SSW 17.3 mph - N/A   Mostly Cloudy
5:55 PM 51.8 °F 44.6 °F 76% 29.77 in 6.2 mi SSW 19.6 mph 31.1 mph N/A   Unknown
6:00 PM 52 °F 45 °F 69% 29.79 in 16 mi SSW 17.9 mph - -   Partly Cloudy
6:25 PM 51.8 °F 44.6 °F 76% 29.77 in 6.2 mi SSW 16.1 mph 28.8 mph N/A   Mostly Cloudy
6:55 PM 51.8 °F 44.6 °F 76% 29.80 in 6.2 mi SSW 16.1 mph - N/A   Mostly Cloudy
7:00 PM 52 °F 45 °F 69% 29.81 in 17 mi SSW 15.7 mph - -   Partly Cloudy
7:25 PM 51.8 °F 44.6 °F 76% 29.80 in 6.2 mi SSW 17.3 mph - N/A   Mostly Cloudy
7:55 PM 51.8 °F 44.6 °F 76% 29.80 in 6.2 mi SSW 16.1 mph - N/A   Mostly Cloudy
8:00 PM 52 °F 45 °F 70% 29.82 in 16 mi SSW 15.7 mph - -   Partly Cloudy
8:25 PM 51.8 °F 44.6 °F 76% 29.80 in 6.2 mi SSW 12.7 mph - N/A   Overcast
8:55 PM 51.8 °F 44.6 °F 76% 29.83 in 6.2 mi SSW 15.0 mph - N/A   Mostly Cloudy
9:00 PM 52 °F 45 °F 69% 29.83 in 16 mi South 15.7 mph - -   Overcast
9:25 PM 51.8 °F 44.6 °F 76% 29.83 in 6.2 mi SSW 15.0 mph - N/A   Scattered Clouds
9:55 PM 51.8 °F 44.6 °F 76% 29.83 in 6.2 mi SSW 15.0 mph - N/A   Scattered Clouds
10:00 PM 51 °F 45 °F 72% 29.84 in 18 mi SSW 17.9 mph - -   Mostly Cloudy
10:25 PM 51.8 °F 44.6 °F 76% 29.83 in 6.2 mi SSW 18.4 mph - N/A   Mostly Cloudy
10:55 PM 50.0 °F 44.6 °F 82% 29.83 in 6.2 mi SSW 16.1 mph - N/A   Unknown
11:00 PM 50 °F 45 °F 76% 29.85 in 19 mi SSW 13.4 mph - -  
11:25 PM 50.0 °F 44.6 °F 82% 29.83 in 6.2 mi South 13.8 mph - N/A   Unknown
11:55 PM 50.0 °F 44.6 °F 82% 29.83 in 6.2 mi SSW 15.0 mph - N/A   Partly Cloudy